IRIDIUM 106 1 41917U 17003A 26062.18687769 .00000087 00000+0 23948-4 0 9995 2 41917 86.3992 132.8779 0001923 104.5929 255.5480 14.34218004478019 IRIDIUM 103 1 41918U 17003B 26062.17419237 .00000126 00000+0 37921-4 0 9998 2 41918 86.3991 132.7833 0002181 86.5701 273.5744 14.34218474478039 IRIDIUM 109 1 41919U 17003C 26062.18053564 .00000058 00000+0 13573-4 0 9998 2 41919 86.3990 132.8383 0002185 94.9689 265.1756 14.34217854478000 IRIDIUM 102 1 41920U 17003D 26062.14882220 .00000173 00000+0 54591-4 0 9998 2 41920 86.3991 132.7776 0002257 97.0144 263.1309 14.34218362478083 IRIDIUM 105 1 41921U 17003E 26062.11541592 .00000314 00000+0 10460-3 0 9993 2 41921 86.3927 101.2455 0002260 93.0284 267.1171 14.34397879479930 IRIDIUM 104 1 41922U 17003F 26062.16150840 .00000123 00000+0 37001-4 0 9990 2 41922 86.3990 132.8132 0002397 89.0031 271.1440 14.34218244478075 IRIDIUM 114 1 41923U 17003G 26062.16785028 .00000103 00000+0 29648-4 0 9999 2 41923 86.3991 132.7941 0002254 90.1502 269.9952 14.34218151478050 IRIDIUM 108 1 41924U 17003H 26062.05660249 .00000017 00000+0 -88957-6 0 9990 2 41924 86.3921 101.1584 0002201 97.4352 262.7094 14.34217642479897 IRIDIUM 112 1 41925U 17003J 26062.15516548 .00000104 00000+0 30022-4 0 9998 2 41925 86.3985 132.6464 0002353 94.4090 265.7375 14.34217982478079 IRIDIUM 111 1 41926U 17003K 26062.21224868 .00000077 00000+0 20582-4 0 9996 2 41926 86.3989 132.6908 0002139 95.1243 265.0197 14.34217732478064 IRIDIUM 113 1 42803U 17039A 26061.91313857 .00000064 00000+0 15734-4 0 9992 2 42803 86.4020 6.5789 0002289 83.3632 276.7825 14.34218069455953 IRIDIUM 123 1 42804U 17039B 26062.02438512 .00000059 00000+0 14010-4 0 9992 2 42804 86.3963 37.9901 0002029 83.0939 277.0487 14.34217506454730 IRIDIUM 120 1 42805U 17039C 26061.90679480 .00000345 00000+0 11610-3 0 9990 2 42805 86.4010 6.3781 0002072 89.3885 270.7548 14.34218583455946 IRIDIUM 115 1 42806U 17039D 26061.90372281 .00000474 00000+0 13482-3 0 9992 2 42806 86.4546 6.4934 0001871 84.3109 275.8305 14.43282962458933 IRIDIUM 118 1 42807U 17039E 26061.98632847 .00000132 00000+0 40105-4 0 9992 2 42807 86.3961 38.0048 0002244 85.6226 274.5226 14.34217685454721 IRIDIUM 117 1 42808U 17039F 26061.93558867 .00000023 00000+0 10968-5 0 9991 2 42808 86.3958 37.9846 0002056 83.8055 276.3375 14.34217766454740 IRIDIUM 126 1 42809U 17039G 26061.96095951 -.00000003 00000+0 -79824-5 0 9991 2 42809 86.3958 38.0238 0002072 82.2234 277.9197 14.34217595454725 IRIDIUM 124 1 42810U 17039H 26062.18443916 .00000483 00000+0 13748-3 0 9997 2 42810 86.4540 334.6924 0002115 83.9810 276.1632 14.43267872459822 IRIDIUM 128 1 42811U 17039J 26062.09123435 .00000032 00000+0 43805-5 0 9998 2 42811 86.3906 69.5069 0002047 95.2024 264.9406 14.34217645454775 IRIDIUM 121 1 42812U 17039K 26061.97998777 .00000008 00000+0 -40841-5 0 9995 2 42812 86.3960 38.0429 0002098 90.1867 269.9569 14.34217461454605 IRIDIUM 133 1 42955U 17061A 26062.12294763 -.00000007 00000+0 -96489-5 0 9999 2 42955 86.3911 69.6092 0002014 90.2953 269.8473 14.34217253439571 IRIDIUM 100 1 42956U 17061B 26062.11660431 .00000009 00000+0 -38158-5 0 9998 2 42956 86.3909 69.5328 0002050 90.2993 269.8438 14.34217449439572 IRIDIUM 122 1 42957U 17061C 26062.08488934 .00000087 00000+0 23951-4 0 9990 2 42957 86.3908 69.5459 0002141 88.1116 272.0325 14.34217880439571 IRIDIUM 129 1 42958U 17061D 26062.04049417 .00000080 00000+0 21595-4 0 9991 2 42958 86.3908 69.6304 0002541 87.3521 272.7966 14.34218142439588 IRIDIUM 119 1 42959U 17061E 26062.07854961 .00000036 00000+0 58412-5 0 9993 2 42959 86.3910 69.6098 0002272 86.1102 274.0354 14.34217805439609 IRIDIUM 107 1 42960U 17061F 26062.09757645 .00000036 00000+0 56738-5 0 9997 2 42960 86.3909 69.6225 0001906 85.7723 274.3690 14.34217800439610 IRIDIUM 132 1 42961U 17061G 26062.10391864 .00000098 00000+0 28052-4 0 9992 2 42961 86.3909 69.6000 0002101 90.0994 270.0443 14.34218002439613 IRIDIUM 136 1 42962U 17061H 26062.06586395 .00000034 00000+0 49692-5 0 9997 2 42962 86.3908 69.6220 0002185 87.4399 272.7047 14.34217908439622 IRIDIUM 139 1 42963U 17061J 26062.07220692 .00000028 00000+0 30135-5 0 9999 2 42963 86.3911 69.6796 0002100 90.6783 269.4653 14.34217734439639 IRIDIUM 125 1 42964U 17061K 26062.05952065 .00000078 00000+0 20914-4 0 9992 2 42964 86.3911 69.7443 0002069 74.8122 285.3302 14.34218101439643 IRIDIUM 135 1 43070U 17083A 26061.89411578 .00000344 00000+0 11578-3 0 9996 2 43070 86.4016 6.4307 0002177 85.9729 274.1716 14.34217286428918 IRIDIUM 138 1 43071U 17083B 26061.91948140 .00000035 00000+0 52877-5 0 9996 2 43071 86.4029 6.0994 0002406 77.7321 282.4144 14.34217846428901 IRIDIUM 116 1 43072U 17083C 26061.88776811 .00000029 00000+0 32298-5 0 9995 2 43072 86.4012 6.4203 0002041 93.7742 266.3687 14.34217743428933 IRIDIUM 130 1 43073U 17083D 26062.06535964 .00000171 00000+0 53956-4 0 9990 2 43073 86.4021 6.6112 0001895 87.9671 272.1742 14.34218354428900 IRIDIUM 151 1 43074U 17083E 26061.90045329 .00000061 00000+0 14674-4 0 9996 2 43074 86.4015 6.4705 0002160 87.1856 272.9587 14.34218003428909 IRIDIUM 134 1 43075U 17083F 26061.93850868 .00000036 00000+0 58337-5 0 9999 2 43075 86.4020 6.4613 0002025 85.1282 275.0145 14.34217794428871 IRIDIUM 137 1 43076U 17083G 26061.88142547 .00000049 00000+0 10333-4 0 9999 2 43076 86.4018 6.5754 0002287 97.1760 262.9695 14.34218011428935 IRIDIUM 141 1 43077U 17083H 26061.87509590 .00000332 00000+0 11133-3 0 9997 2 43077 86.4014 6.4151 0002244 82.9831 277.1620 14.34219785428931 IRIDIUM 153 1 43078U 17083J 26062.17610442 .00000067 00000+0 16956-4 0 9995 2 43078 86.4015 334.8031 0002162 77.7206 282.4232 14.34217927430088 IRIDIUM 131 1 43079U 17083K 26061.93216595 .00000332 00000+0 11141-3 0 9995 2 43079 86.4020 6.5701 0002329 85.4480 274.6982 14.34216421428874 IRIDIUM 144 1 43249U 18030A 26062.18244685 -.00000054 00000+0 -26242-4 0 9998 2 43249 86.4011 334.7320 0001918 85.9294 274.2121 14.34217385414941 IRIDIUM 149 1 43250U 18030B 26062.11902074 .00000179 00000+0 56723-4 0 9999 2 43250 86.4016 334.7269 0002159 83.2948 276.8494 14.34218377414959 IRIDIUM 157 1 43251U 18030C 26062.06827994 .00000110 00000+0 32046-4 0 9998 2 43251 86.4018 334.7991 0002144 85.1008 275.0432 14.34218156414921 IRIDIUM 140 1 43252U 18030D 26062.15707654 .00000028 00000+0 30470-5 0 9997 2 43252 86.4015 334.7748 0002045 83.4756 276.6673 14.34217690414993 IRIDIUM 145 1 43253U 18030E 26062.07462153 .00000214 00000+0 69326-4 0 9999 2 43253 86.4015 334.7815 0001853 93.0529 267.0879 14.34218378414918 IRIDIUM 146 1 43254U 18030F 26062.12536284 .00000334 00000+0 11238-3 0 9994 2 43254 86.4016 334.7729 0002080 88.9672 271.1762 14.34218961414936 IRIDIUM 148 1 43255U 18030G 26062.16341832 .00000270 00000+0 89171-4 0 9993 2 43255 86.4015 334.7984 0002137 86.3056 273.8384 14.34219054414977 IRIDIUM 142 1 43256U 18030H 26062.13170528 .00000088 00000+0 24269-4 0 9997 2 43256 86.4014 334.7048 0001879 92.0137 268.1274 14.34218163414935 IRIDIUM 150 1 43257U 18030J 26062.16975997 .00000340 00000+0 11427-3 0 9996 2 43257 86.4017 334.8015 0002053 85.6221 274.5209 14.34218088414969 IRIDIUM 143 1 43258U 18030K 26062.08096484 .00000124 00000+0 37181-4 0 9999 2 43258 86.4020 334.9270 0001990 88.8387 271.3037 14.34218370414884 IRIDIUM 161 1 43478U 18047C 26062.16214365 .00000372 00000+0 10457-3 0 9991 2 43478 86.4512 132.8101 0002540 92.9179 267.2313 14.43282522409840 IRIDIUM 152 1 43479U 18047D 26062.19322088 .00000206 00000+0 66485-4 0 9996 2 43479 86.3986 132.6576 0002276 92.6884 267.4572 14.34218251407299 IRIDIUM 147 1 43480U 18047E 26062.12979409 .00000114 00000+0 33736-4 0 9997 2 43480 86.3988 132.6873 0002211 99.3794 260.7652 14.34218388407281 IRIDIUM 110 1 43481U 18047F 26062.13613830 .00000063 00000+0 15529-4 0 9995 2 43481 86.3988 132.7733 0002556 90.2277 269.9211 14.34217861407272 IRIDIUM 162 1 43482U 18047G 26062.15584193 .00000375 00000+0 10563-3 0 9995 2 43482 86.4510 132.7050 0002124 91.8768 268.2676 14.43281458409834 IRIDIUM 160 1 43569U 18061A 26062.15174154 .00000121 00000+0 36103-4 0 9997 2 43569 86.3924 101.1525 0002369 92.9275 267.2192 14.34218419398174 IRIDIUM 166 1 43570U 18061B 26062.17711166 .00000148 00000+0 45737-4 0 9993 2 43570 86.3921 101.0936 0002178 96.3759 263.7685 14.34218237398201 IRIDIUM 158 1 43571U 18061C 26062.14539750 .00000007 00000+0 -44418-5 0 9999 2 43571 86.3929 101.1166 0002012 90.0284 270.1143 14.34216609398164 IRIDIUM 165 1 43572U 18061D 26062.17076904 .00000114 00000+0 33591-4 0 9997 2 43572 86.3921 101.1503 0002178 96.2607 263.8837 14.34218044398199 IRIDIUM 155 1 43573U 18061E 26062.13271330 -.00000017 00000+0 -13072-4 0 9990 2 43573 86.3920 101.0404 0001954 93.0325 267.1094 14.34217664398156 IRIDIUM 154 1 43574U 18061F 26062.11369955 .00000292 00000+0 97330-4 0 9992 2 43574 86.3925 101.1773 0002190 98.9549 261.1895 14.34221272398206 IRIDIUM 163 1 43575U 18061G 26062.16442708 .00000053 00000+0 11746-4 0 9998 2 43575 86.3924 101.0748 0002263 91.5304 268.6151 14.34217762398189 IRIDIUM 156 1 43576U 18061H 26062.13905584 .00000076 00000+0 20112-4 0 9994 2 43576 86.3927 101.0924 0002017 95.1950 264.9476 14.34218045398176 IRIDIUM 164 1 43577U 18061J 26062.12002831 .00000117 00000+0 34542-4 0 9995 2 43577 86.3924 101.1391 0002323 98.1497 261.9962 14.34218405398214 IRIDIUM 159 1 43578U 18061K 26062.15808450 -.00000054 00000+0 -26252-4 0 9991 2 43578 86.3927 101.0620 0002267 92.6155 267.5300 14.34217471398185 IRIDIUM 180 1 43922U 19002A 26062.01804313 .00000061 00000+0 14761-4 0 9997 2 43922 86.3962 37.9542 0002292 86.0608 274.0849 14.34217886373774 IRIDIUM 176 1 43923U 19002B 26061.92545438 .00001251 00000+0 19442-3 0 9999 2 43923 86.6082 37.9510 0002342 87.5035 272.6450 14.72261761383611 IRIDIUM 168 1 43924U 19002C 26061.94192931 .00000365 00000+0 12334-3 0 9996 2 43924 86.3962 38.0603 0002219 86.7744 273.3705 14.34220100373746 IRIDIUM 173 1 43925U 19002D 26061.92924292 -.00000531 00000+0 -19664-3 0 9998 2 43925 86.3955 37.9590 0002057 80.0329 280.1099 14.34215070373728 IRIDIUM 169 1 43926U 19002E 26062.11014195 .00000306 00000+0 93519-4 0 9993 2 43926 86.4164 69.5411 0001602 74.3119 285.8256 14.38610401374979 IRIDIUM 172 1 43927U 19002F 26062.13220971 .00000080 00000+0 21376-4 0 9998 2 43927 86.3963 37.8816 0002358 86.9359 273.2106 14.34217888373766 IRIDIUM 175 1 43928U 19002G 26062.12476912 .00001219 00000+0 18940-3 0 9993 2 43928 86.1547 335.7733 0002212 112.8199 247.3251 14.72255348383636 IRIDIUM 171 1 43929U 19002H 26062.04341278 .00000080 00000+0 21513-4 0 9997 2 43929 86.3970 38.2135 0002032 91.7201 268.4228 14.34218035373748 IRIDIUM 170 1 43930U 19002J 26061.93164220 .00001256 00000+0 19534-3 0 9991 2 43930 86.6082 37.9515 0002614 91.5230 268.6286 14.72254903383621 IRIDIUM 167 1 43931U 19002K 26061.96730147 .00000021 00000+0 31479-6 0 9996 2 43931 86.3959 37.9719 0001847 89.7532 270.3875 14.34217905373733 IRIDIUM 181 1 56726U 23068S 26062.17114648 .00000380 00000+0 10695-3 0 9997 2 56726 86.4461 101.1269 0002600 98.6243 261.5252 14.43313719147143 IRIDIUM 177 1 56727U 23068T 26061.91765101 .00001006 00000+0 12884-3 0 9993 2 56727 86.1992 19.2366 0002351 81.1514 278.9973 14.80234075150647 IRIDIUM 174 1 56728U 23068U 26061.98725625 .00001305 00000+0 20297-3 0 9997 2 56728 86.6088 38.0650 0002610 83.5872 276.5642 14.72257468150396 IRIDIUM 178 1 56729U 23068V 26062.04194765 .00000646 00000+0 81494-4 0 9995 2 56729 86.6481 69.7201 0002303 102.5292 257.6187 14.80241868150664 IRIDIUM 179 1 56730U 23068W 26062.10418691 .00000609 00000+0 76695-4 0 9997 2 56730 86.6718 78.3663 0002256 93.3797 266.7682 14.80238380150678